sat.trackr.live / text

‹ back to catalog

STARLINK-2227

NORAD 48575 · 2021-041Y

PAYLOAD ACTIVE UNKNOWN

§ Identity

Operator
Country
US
Launch date
2021-05-15
Launch site
AFETR
Launch vehicle
Mass (kg)
RCS (m²)

Purposes: comms

External: N2YO · Heavens-Above · Gunter

§ Orbital elements

Epoch: 2026-09-19T16:01:17.870880Z

Period
93.87 min
Inclination
53.1588°
Eccentricity
0.0004175
Mean motion
15.33999153 rev/d
Perigee alt
461.0 km
Apogee alt
466.8 km
Semi-major
6,842.0 km
B*
1.0091e-3
RAAN
265.1840°
Arg perigee
57.1615°
Mean anomaly
302.9789°
Rev number
29,555

§ Raw data

STARLINK-22271 48575U 21041Y   26262.66756795  .00033444  00000+0  10091-2 0  99962 48575  53.1588 265.1840 0004175  57.1615 302.9789 15.33999153295551

JSON: /api/v1/satellites/48575 · /tle

For live sub-satellite position, see the globe view (requires WebGL).

§ Visibility from observer

Set your observer location to see the next 7 days of passes ≥ 10°. The values pass through the URL so the page stays shareable.

No JS? Fill the form by hand. The geolocation button needs JavaScript.